When you browse on this site, cookies collect data to enhance your experience and personalize the content and advertising you see.
Visit our Privacy Policy to learn more. By continuing to use the site, you agree to this use of cookies and data.
  • In Austria
  • List of Countries
  • For 7 days
  • Water Temperature
  • Weather Map
  • News
  • Weather Widgets
  • user-avatar
    Login

    Hourly Weather Calnali

    Today, 27 January, Monday

    Time Temperature Precipitation Wind Pressure Humidity
    00:00 +14°C° 0.6 mm 1 mps 655 mmHg 91%
    01:00 +14°C° 0.6 mm 1 mps 654 mmHg 91%
    02:00 +14°C° 0.6 mm 1 mps 654 mmHg 91%
    03:00 +14°C° 0 mm 1 mps 654 mmHg 91%
    04:00 +14°C° 0 mm 1 mps 654 mmHg 91%
    05:00 +14°C° 0 mm 1 mps 654 mmHg 92%
    06:00 +15°C° 0 mm 1 mps 655 mmHg 88%
    07:00 +16°C° 0 mm 1 mps 656 mmHg 85%
    08:00 +18°C° 0 mm 1 mps 656 mmHg 81%
    09:00 +20°C° 0 mm 1 mps 656 mmHg 74%
    10:00 +21°C° 0 mm 1 mps 657 mmHg 68%
    11:00 +23°C° 0 mm 2 mps 657 mmHg 61%
    12:00 +23°C° 0.1 mm 2 mps 656 mmHg 63%
    13:00 +23°C° 0.1 mm 2 mps 655 mmHg 65%
    14:00 +23°C° 0.1 mm 2 mps 654 mmHg 67%
    15:00 +20°C° 0 mm 2 mps 654 mmHg 74%
    16:00 +19°C° 0 mm 2 mps 653 mmHg 82%
    17:00 +19°C° 0 mm 1 mps 653 mmHg 89%
    18:00 +18°C° 0 mm 1 mps 653 mmHg 91%
    19:00 +16°C° 0 mm 1 mps 654 mmHg 93%
    20:00 +14°C° 0 mm 0 mps 654 mmHg 95%
    21:00 +15°C° 0 mm 1 mps 654 mmHg 95%
    22:00 +15°C° 0 mm 1 mps 653 mmHg 95%
    23:00 +14°C° 0 mm 1 mps 653 mmHg 94%

    Tomorrow, 28 January, Tuesday

    Time Temperature Precipitation Wind Pressure Humidity
    00:00 +14°C° 0 mm 1 mps 653 mmHg 94%
    01:00 +14°C° 0 mm 1 mps 653 mmHg 93%
    02:00 +14°C° 0 mm 1 mps 652 mmHg 92%
    03:00 +14°C° 0 mm 1 mps 652 mmHg 91%
    04:00 +14°C° 0 mm 1 mps 652 mmHg 89%
    05:00 +14°C° 0 mm 1 mps 652 mmHg 88%
    06:00 +14°C° 0 mm 0 mps 653 mmHg 83%
    07:00 +15°C° 0 mm 0 mps 654 mmHg 77%
    08:00 +17°C° 0 mm 0 mps 654 mmHg 72%
    09:00 +18°C° 0 mm 0 mps 654 mmHg 67%
    10:00 +22°C° 0 mm 1 mps 655 mmHg 61%
    11:00 +24°C° 0 mm 1 mps 655 mmHg 56%
    12:00 +24°C° 0 mm 1 mps 654 mmHg 56%
    13:00 +24°C° 0 mm 2 mps 654 mmHg 56%
    14:00 +24°C° 0 mm 2 mps 653 mmHg 56%
    15:00 +23°C° 0 mm 2 mps 653 mmHg 65%
    16:00 +21°C° 0 mm 1 mps 652 mmHg 74%
    17:00 +20°C° 0 mm 1 mps 652 mmHg 83%
    18:00 +19°C° 0.1 mm 1 mps 653 mmHg 87%
    19:00 +18°C° 0.1 mm 1 mps 653 mmHg 90%
    20:00 +16°C° 0.1 mm 1 mps 654 mmHg 94%
    21:00 +15°C° 0.4 mm 1 mps 654 mmHg 94%
    22:00 +15°C° 0.4 mm 1 mps 654 mmHg 94%
    23:00 +15°C° 0.4 mm 1 mps 655 mmHg 94%

    Day after tomorrow, 29 January, Wednesday

    Time Temperature Precipitation Wind Pressure Humidity
    00:00 +15°C° 0.4 mm 1 mps 655 mmHg 94%
    01:00 +14°C° 0.4 mm 1 mps 654 mmHg 95%
    02:00 +14°C° 0.4 mm 1 mps 654 mmHg 95%
    03:00 +14°C° 0.6 mm 1 mps 655 mmHg 95%
    04:00 +14°C° 0.6 mm 1 mps 655 mmHg 96%
    05:00 +13°C° 0.6 mm 2 mps 655 mmHg 96%
    06:00 +13°C° 0.5 mm 2 mps 655 mmHg 95%
    07:00 +12°C° 0.5 mm 1 mps 655 mmHg 94%
    08:00 +11°C° 0.5 mm 1 mps 656 mmHg 93%
    09:00 +12°C° 0 mm 1 mps 656 mmHg 84%
    10:00 +13°C° 0 mm 1 mps 656 mmHg 75%
    11:00 +13°C° 0 mm 1 mps 656 mmHg 66%
    12:00 +14°C° 0 mm 1 mps 655 mmHg 65%
    13:00 +15°C° 0 mm 2 mps 654 mmHg 64%
    14:00 +15°C° 0 mm 2 mps 653 mmHg 63%
    15:00 +14°C° 0 mm 2 mps 653 mmHg 69%
    16:00 +13°C° 0 mm 2 mps 652 mmHg 76%
    17:00 +12°C° 0 mm 1 mps 652 mmHg 82%
    18:00 +12°C° 0 mm 1 mps 652 mmHg 85%
    19:00 +11°C° 0 mm 1 mps 653 mmHg 87%
    20:00 +11°C° 0 mm 1 mps 653 mmHg 89%
    21:00 +10°C° 0 mm 0 mps 653 mmHg 89%
    22:00 +10°C° 0 mm 0 mps 653 mmHg 89%
    23:00 +10°C° 0 mm 0 mps 653 mmHg 88%

    30 January, Thursday

    Time Temperature Precipitation Wind Pressure Humidity
    00:00 +9°C° 0 mm 0 mps 652 mmHg 90%
    01:00 +8°C° 0 mm 0 mps 651 mmHg 91%
    02:00 +8°C° 0 mm 0 mps 651 mmHg 93%
    03:00 +8°C° 0 mm 0 mps 651 mmHg 92%
    04:00 +9°C° 0 mm 1 mps 651 mmHg 92%
    05:00 +9°C° 0 mm 1 mps 651 mmHg 91%
    06:00 +10°C° 0 mm 1 mps 651 mmHg 85%
    07:00 +11°C° 0 mm 0 mps 652 mmHg 79%
    08:00 +12°C° 0 mm 0 mps 653 mmHg 73%
    09:00 +15°C° 0 mm 1 mps 653 mmHg 68%
    10:00 +18°C° 0 mm 1 mps 653 mmHg 62%
    11:00 +20°C° 0 mm 1 mps 653 mmHg 56%
    12:00 +19°C° 0 mm 2 mps 653 mmHg 59%
    13:00 +19°C° 0 mm 2 mps 652 mmHg 61%
    14:00 +19°C° 0 mm 2 mps 651 mmHg 64%
    15:00 +18°C° 0 mm 2 mps 651 mmHg 72%
    16:00 +16°C° 0 mm 1 mps 651 mmHg 81%
    17:00 +14°C° 0 mm 0 mps 650 mmHg 89%
    18:00 +13°C° 0 mm 0 mps 651 mmHg 87%
    19:00 +13°C° 0 mm 0 mps 652 mmHg 85%
    20:00 +14°C° 0 mm 1 mps 652 mmHg 84%
    21:00 +14°C° 0 mm 1 mps 652 mmHg 82%
    22:00 +14°C° 0 mm 1 mps 653 mmHg 80%
    23:00 +14°C° 0 mm 1 mps 653 mmHg 79%

    31 January, Friday

    Time Temperature Precipitation Wind Pressure Humidity
    00:00 +13°C° 0 mm 1 mps 652 mmHg 81%
    01:00 +12°C° 0 mm 0 mps 652 mmHg 83%
    02:00 +11°C° 0 mm 0 mps 652 mmHg 86%
    03:00 +12°C° 0 mm 1 mps 652 mmHg 88%
    04:00 +12°C° 0 mm 1 mps 653 mmHg 91%
    05:00 +12°C° 0 mm 1 mps 653 mmHg 93%
    06:00 +12°C° 0 mm 1 mps 654 mmHg 93%
    07:00 +12°C° 0 mm 1 mps 655 mmHg 92%
    08:00 +13°C° 0 mm 1 mps 655 mmHg 92%
    09:00 +13°C° 0 mm 1 mps 655 mmHg 89%
    10:00 +13°C° 0 mm 2 mps 655 mmHg 86%
    11:00 +13°C° 0 mm 2 mps 656 mmHg 83%
    12:00 +13°C° 0 mm 2 mps 655 mmHg 84%
    13:00 +12°C° 0 mm 2 mps 654 mmHg 85%
    14:00 +11°C° 0 mm 1 mps 654 mmHg 87%
    15:00 +11°C° 0 mm 1 mps 654 mmHg 87%
    16:00 +11°C° 0 mm 1 mps 655 mmHg 88%
    17:00 +10°C° 0 mm 1 mps 655 mmHg 88%
    18:00 +10°C° 0.1 mm 1 mps 656 mmHg 89%
    19:00 +10°C° 0.1 mm 1 mps 657 mmHg 90%
    20:00 +10°C° 0.1 mm 1 mps 657 mmHg 91%
    21:00 +9°C° 0.5 mm 1 mps 657 mmHg 92%
    22:00 +9°C° 0.5 mm 1 mps 657 mmHg 93%
    23:00 +9°C° 0.5 mm 1 mps 657 mmHg 94%

    1 February, Saturday

    Time Temperature Precipitation Wind Pressure Humidity
    00:00 +9°C° 0.1 mm 1 mps 657 mmHg 94%
    01:00 +9°C° 0.1 mm 1 mps 657 mmHg 94%
    02:00 +9°C° 0.1 mm 1 mps 657 mmHg 94%
    03:00 +9°C° 0.2 mm 1 mps 657 mmHg 95%
    04:00 +9°C° 0.2 mm 1 mps 657 mmHg 95%
    05:00 +9°C° 0.2 mm 1 mps 658 mmHg 96%
    06:00 +9°C° 0.3 mm 1 mps 658 mmHg 96%
    07:00 +9°C° 0.3 mm 1 mps 659 mmHg 97%
    08:00 +9°C° 0.3 mm 1 mps 660 mmHg 97%
    09:00 +9°C° 0.4 mm 1 mps 660 mmHg 97%
    10:00 +9°C° 0.4 mm 1 mps 660 mmHg 97%
    11:00 +9°C° 0.4 mm 1 mps 660 mmHg 96%
    12:00 +9°C° 0 mm 1 mps 659 mmHg 95%
    13:00 +9°C° 0 mm 1 mps 659 mmHg 94%
    14:00 +9°C° 0 mm 1 mps 658 mmHg 93%
    15:00 +9°C° 0 mm 1 mps 658 mmHg 93%
    16:00 +8°C° 0 mm 0 mps 658 mmHg 93%
    17:00 +8°C° 0 mm 0 mps 659 mmHg 94%
    18:00 +8°C° 0 mm 0 mps 659 mmHg 94%
    19:00 +8°C° 0 mm 0 mps 660 mmHg 93%
    20:00 +7°C° 0 mm 0 mps 660 mmHg 93%
    21:00 +8°C° 0 mm 0 mps 660 mmHg 93%
    22:00 +8°C° 0 mm 0 mps 660 mmHg 92%
    23:00 +8°C° 0 mm 0 mps 660 mmHg 92%
    Show more